This demonstration page uses our WeatherBlox Daily Observations layout. Learn more.

Left ArrowRight Arrow

Hourly Observations for March 31, 2015

Temp ( °F °C ) Dew Point ( °F °C ) Humidity (%) Winds ( mph kmh ) Pressure ( in mb ) Visibility ( mi km ) Precip ( " mm )
12:15 am 00:15 Clear 43 6 28 -2 57 57 W 5 7 30.00 1016 10 16 N/A
12:35 am 00:35 Clear 41 5 28 -2 61 61 W 8 13 29.97 1015 10 16 N/A
12:55 am 00:55 Clear 46 8 28 -2 50 50 W 7 11 29.97 1015 10 16 N/A
1:15 am 01:15 Clear 50 10 28 -2 43 43 W 6 9 29.94 1014 10 16 N/A
1:35 am 01:35 Clear 48 9 28 -2 46 46 W 6 9 29.94 1014 10 16 N/A
1:55 am 01:55 Clear 46 8 28 -2 50 50 W 3 6 29.97 1015 10 16 N/A
2:15 am 02:15 Clear 46 8 28 -2 50 50 WSW 3 6 29.97 1015 10 16 N/A
2:35 am 02:35 Clear 45 7 28 -2 53 53 SSW 6 9 29.97 1015 10 16 N/A
2:55 am 02:55 Clear 43 6 28 -2 57 57 SSW 5 7 29.97 1015 10 16 N/A
3:15 am 03:15 Clear 43 6 30 -1 61 61 SSW 7 11 29.97 1015 10 16 N/A
3:35 am 03:35 Clear 41 5 28 -2 61 61 SSW 6 9 29.97 1015 10 16 N/A
3:55 am 03:55 Clear 41 5 30 -1 66 66 SSW 7 11 29.94 1014 10 16 N/A
4:15 am 04:15 Clear 43 6 28 -2 57 57 SSW 7 11 29.94 1014 10 16 N/A
4:35 am 04:35 Clear 43 6 30 -1 61 61 SSW 6 9 29.94 1014 10 16 N/A
4:55 am 04:55 Clear 41 5 30 -1 66 66 SSW 7 11 29.94 1014 10 16 N/A
5:15 am 05:15 Clear 39 4 30 -1 70 70 SW 5 7 29.94 1014 10 16 N/A
5:35 am 05:35 Partly Cloudy 39 4 30 -1 70 70 SSW 7 11 29.94 1014 10 16 N/A
5:55 am 05:55 Partly Cloudy 39 4 30 -1 70 70 SSW 6 9 29.94 1014 10 16 N/A
6:15 am 06:15 Mostly Cloudy 37 3 30 -1 75 75 SSW 6 9 29.97 1015 10 16 N/A
6:35 am 06:35 Partly Cloudy 37 3 30 -1 75 75 SSW 6 9 29.94 1014 10 16 N/A
6:55 am 06:55 Partly Cloudy 37 3 30 -1 75 75 SSW 8 13 29.97 1015 10 16 N/A
7:15 am 07:15 Sunny 37 3 30 -1 75 75 SW 3 6 29.97 1015 10 16 N/A
7:35 am 07:35 Sunny 36 2 30 -1 81 81 SSW 3 6 29.97 1015 10 16 N/A
7:55 am 07:55 Sunny 41 5 30 -1 66 66 N N/A 29.97 1015 10 16 N/A
8:15 am 08:15 Sunny 43 6 32 undefined 66 66 N N/A 29.97 1015 10 16 N/A
8:35 am 08:35 Sunny 45 7 32 undefined 61 61 S 3 6 29.97 1015 10 16 N/A
8:55 am 08:55 Sunny 48 9 32 undefined 54 54 N N/A 29.91 1013 10 16 N/A
9:15 am 09:15 Sunny 50 10 32 undefined 50 50 S 5 7 29.91 1013 10 16 N/A
9:35 am 09:35 Sunny 54 12 32 undefined 44 44 S 8 13 29.88 1012 10 16 N/A
9:55 am 09:55 Sunny 55 13 32 undefined 41 41 SSW 10 17 29.88 1012 10 16 N/A
10:15 am 10:15 Sunny 59 15 32 undefined 36 36 S 14 22 29.85 1011 10 16 N/A
10:35 am 10:35 Sunny 59 15 32 undefined 36 36 S 16 26 29.83 1010 10 16 N/A
10:55 am 10:55 Sunny 61 16 34 1 36 36 SSW 20 31 29.83 1010 10 16 N/A
11:15 am 11:15 Sunny 63 17 34 1 34 34 SSW 23 37 29.80 1009 10 16 N/A
11:35 am 11:35 Sunny 63 17 34 1 34 34 SSW 15 24 29.80 1009 10 16 N/A
11:55 am 11:55 Sunny 63 17 34 1 34 34 SSW 21 33 29.77 1008 10 16 N/A
12:15 pm 12:15 Sunny 64 18 34 1 32 32 SSW 18 30 29.77 1008 10 16 N/A
12:35 pm 12:35 Sunny 64 18 34 1 32 32 SSW 22 35 29.74 1007 10 16 N/A
12:55 pm 12:55 Sunny 66 19 34 1 30 30 SSW 18 30 29.71 1006 10 16 N/A
1:15 pm 13:15 Sunny 66 19 34 1 30 30 SSW 18 30 29.68 1005 10 16 N/A
1:35 pm 13:35 Sunny 68 20 34 1 28 28 SSW 22 35 29.65 1004 10 16 N/A
1:55 pm 13:55 Sunny 68 20 34 1 28 28 SSW 22 35 29.62 1003 10 16 N/A
2:15 pm 14:15 Mostly Cloudy 68 20 34 1 28 28 S 21 33 29.62 1003 10 16 N/A
2:35 pm 14:35 Cloudy 68 20 34 1 28 28 SSW 16 26 29.62 1003 10 16 N/A
3:00 pm 15:00 Cloudy 64 18 34 1 32 32 S 15 24 29.59 1002 10 16 N/A
3:15 pm 15:15 Cloudy with Light Rain 64 18 36 2 34 34 S 14 22 29.59 1002 10 16 N/A
3:35 pm 15:35 Cloudy 64 18 34 1 32 32 S 20 31 29.56 1001 10 16 N/A
3:55 pm 15:55 Cloudy with Light Rain 64 18 36 2 34 34 WSW 10 17 29.56 1001 10 16 N/A
4:15 pm 16:15 Cloudy 64 18 36 2 34 34 N N/A 29.56 1001 10 16 N/A
4:35 pm 16:35 Cloudy 63 17 36 2 37 37 N N/A 29.56 1001 10 16 N/A
4:55 pm 16:55 Cloudy 63 17 36 2 37 37 N N/A 29.59 1002 10 16 N/A
5:15 pm 17:15 Cloudy 63 17 37 3 39 39 WNW 6 9 29.59 1002 10 16 N/A
5:35 pm 17:35 Mostly Cloudy 66 19 37 3 35 35 WNW 17 28 29.59 1002 10 16 N/A
5:55 pm 17:55 Partly Cloudy 64 18 37 3 37 37 W 17 28 29.62 1003 10 16 N/A
6:15 pm 18:15 Partly Cloudy 64 18 39 4 40 40 NW 20 31 29.62 1003 10 16 N/A
6:35 pm 18:35 Mostly Cloudy with Thunderstorms 59 15 41 5 51 51 N 23 37 29.68 1005 10 16 N/A
6:55 pm 18:55 Cloudy with Thunderstorms 54 12 45 7 72 72 N 16 26 29.71 1006 10 16 N/A
7:15 pm 19:15 Cloudy with Light Rain 54 12 45 7 72 72 N 7 11 29.71 1006 10 16 N/A
7:35 pm 19:35 Cloudy with Light Rain 54 12 45 7 72 72 N 14 22 29.74 1007 10 16 N/A
8:15 pm 20:15 Mostly Cloudy 52 11 45 7 77 77 N 9 15 29.77 1008 10 16 N/A
8:35 pm 20:35 Mostly Cloudy 50 10 43 6 76 76 N 9 15 29.80 1009 10 16 N/A
8:55 pm 20:55 Mostly Cloudy 50 10 43 6 76 76 N 7 11 29.80 1009 10 16 N/A
9:15 pm 21:15 Partly Cloudy 50 10 41 5 71 71 N 10 17 29.83 1010 10 16 N/A
9:35 pm 21:35 Clear 48 9 41 5 76 76 N 9 15 29.83 1010 10 16 N/A
9:55 pm 21:55 Clear 46 8 41 5 82 82 N 10 17 29.83 1010 10 16 N/A
10:15 pm 22:15 Clear 46 8 41 5 82 82 N 12 19 29.88 1012 10 16 N/A
10:35 pm 22:35 Clear 46 8 39 4 76 76 N 14 22 29.91 1013 10 16 N/A
10:55 pm 22:55 Clear 46 8 39 4 76 76 N 16 26 29.91 1013 10 16 N/A
11:15 pm 23:15 Clear 45 7 37 3 76 76 N 16 26 29.91 1013 10 16 N/A
11:35 pm 23:35 Clear 43 6 34 1 71 71 N 14 22 29.94 1014 10 16 N/A
11:55 pm 23:55 Clear 43 6 34 1 71 71 N 13 20 29.94 1014 10 16 N/A

Powered by AerisWeather